Погода в Малых Березниках

Россия / Республика Мордовия     54°22′48″N   45°27′40″E
темп.,
°C
ветер,
м/с
пор.,
м/с
влажн.,
%
обл.,
%
осадки,
мм/ч
давл.,
гПа
погр.,
м
11 мая, вт
вт1100:00+11ссв6149756 0.0 1021351
03:00+11св6159595 0.0 1021362
06:00+12св51194100 0.0 1022292
09:00+17всв6976100 0.0 1023402
12:00+21вюв5852100 0.0 10241232
15:00+22в6105399 0.0 10241659
18:00+16ююз478398 0.7 1026288
21:00+12з239394 1.0 102742
12 мая, ср
ср1200:00+12ссз339296 0.1 102767
03:00+11ссв3690100 0.1 1026138
06:00+13всв2786100 0.0 1025192
09:00+18вюв7116799 0.0 1025864
12:00+16вюв6147688 0.0 1025631
15:00+14вюв61484100 1.4 1025563
18:00+14вюв61489100 0.3 1024521
21:00+13юв3108996 0.3 1025255
13 мая, чт
чт1300:00+12вюв378769 0.0 1024123
03:00+12в488744 0.0 1024158
06:00+13вюв41183100 0.0 1024243
09:00+18вюв7136397 0.0 1022553
12:00+15в71281100 1.1 1021350
15:00+18вюв71477100 1.7 10201032
18:00+19вюв51071100 0.0 1020327
21:00+15юв5147199 0.1 1020300
14 мая, пт
пт1400:00+14ююв4127531 0.0 1020216
03:00+13ююв22795 0.0 102013
06:00+15ююв117763 0.0 102159
09:00+19ююв236640 0.0 1021366
12:00+23ююв355899 0.0 10201018
15:00+26ююв4752100 0.0 10191742
18:00+22ююв496875 0.0 1019230
21:00+18юв410720 0.0 1018147
15 мая, сб
сб1500:00+17ююв514755 0.0 1018280
03:00+15юв49685 0.0 1018149
06:00+16ююв313695 0.0 1018266
09:00+22ююв6145585 0.0 1017578
12:00+25ю7134669 0.0 10171108
15:00+25ю713475 0.0 10161257
18:00+22ююв61360100 0.0 1015423
21:00+18ююв33680 0.0 101530